GEFSMA_prec_meanprecacc_006.txt.gz
Total_Precipitation_Accumulation
0.12 0.12 0.10 0.10 0.09 0.10 0.20 0.19 0.14 0.11 0.14 0.17 0.15 0.08 0.05 0.06 0.09 0.13 0.11 0.13 0.20 0.15 0.11 0.09 0.10 0.12 0.12 0.14 0.13 0.11 0.11 0.11 0.09 0.08 0.08 0.05 0.03 0.02 0.01 0.02 0.03 0.03 0.03
0.19 0.15 0.16 0.19 0.20 0.30 0.34 0.28 0.24 0.18 0.13 0.15 0.10 0.05 0.03 0.05 0.08 0.13 0.14 0.14 0.18 0.15 0.10 0.10 0.10 0.10 0.11 0.13 0.15 0.16 0.15 0.13 0.10 0.09 0.08 0.07 0.06 0.05 0.03 0.04 0.07 0.06 0.05
0.37 0.40 0.35 0.30 0.35 0.38 0.38 0.44 0.39 0.24 0.14 0.18 0.20 0.14 0.07 0.10 0.17 0.14 0.10 0.08 0.09 0.13 0.13 0.12 0.13 0.10 0.09 0.12 0.18 0.20 0.17 0.14 0.11 0.07 0.05 0.06 0.08 0.07 0.08 0.06 0.08 0.10 0.10
0.50 0.47 0.38 0.41 0.48 0.37 0.30 0.29 0.21 0.14 0.12 0.17 0.14 0.07 0.04 0.09 0.19 0.18 0.11 0.06 0.06 0.04 0.04 0.10 0.16 0.12 0.13 0.19 0.19 0.18 0.14 0.08 0.06 0.06 0.04 0.04 0.05 0.04 0.04 0.04 0.03 0.08 0.09
0.24 0.20 0.17 0.23 0.32 0.28 0.20 0.17 0.17 0.16 0.11 0.15 0.21 0.12 0.08 0.11 0.16 0.17 0.12 0.05 0.06 0.06 0.02 0.03 0.04 0.06 0.10 0.16 0.15 0.11 0.11 0.12 0.07 0.07 0.06 0.06 0.06 0.03 0.01 0.01 0.02 0.03 0.05
0.12 0.09 0.08 0.10 0.14 0.15 0.15 0.13 0.10 0.12 0.09 0.10 0.15 0.10 0.10 0.12 0.16 0.15 0.09 0.05 0.03 0.03 0.02 0.01 0.01 0.01 0.02 0.05 0.06 0.04 0.05 0.11 0.09 0.08 0.05 0.08 0.13 0.11 0.03 0.01 0.01 0.03 0.05
0.01 0.01 0.01 0.01 0.01 0.02 0.03 0.05 0.06 0.07 0.06 0.11 0.12 0.07 0.06 0.06 0.08 0.09 0.08 0.07 0.02 0.02 0.02 0.02 0.01 0.01 0.00 0.00 0.00 0.01 0.01 0.04 0.07 0.09 0.10 0.08 0.11 0.14 0.09 0.05 0.03 0.05 0.07
0.00 0.00 0.00 0.00 0.00 0.00 0.00 0.00 0.01 0.03 0.03 0.05 0.07 0.08 0.05 0.03 0.03 0.04 0.06 0.04 0.03 0.04 0.02 0.02 0.02 0.03 0.01 0.00 0.00 0.02 0.03 0.02 0.07 0.11 0.14 0.12 0.08 0.06 0.07 0.07 0.05 0.05 0.06
0.00 0.00 0.00 0.00 0.00 0.00 0.00 0.00 0.00 0.01 0.02 0.02 0.05 0.08 0.05 0.03 0.03 0.03 0.03 0.02 0.01 0.02 0.01 0.00 0.00 0.00 0.00 0.00 0.02 0.04 0.05 0.06 0.10 0.12 0.13 0.12 0.06 0.02 0.02 0.05 0.08 0.08 0.05
0.00 0.00 0.00 0.00 0.00 0.01 0.01 0.01 0.01 0.02 0.03 0.03 0.03 0.05 0.06 0.06 0.06 0.04 0.04 0.02 0.03 0.03 0.02 0.01 0.01 0.02 0.02 0.03 0.05 0.06 0.06 0.08 0.07 0.06 0.06 0.07 0.06 0.03 0.03 0.06 0.11 0.14 0.11
0.00 0.00 0.00 0.00 0.01 0.01 0.01 0.02 0.02 0.03 0.05 0.05 0.06 0.06 0.06 0.07 0.06 0.06 0.03 0.03 0.04 0.02 0.01 0.02 0.06 0.08 0.07 0.07 0.12 0.08 0.07 0.08 0.09 0.10 0.07 0.07 0.08 0.08 0.06 0.05 0.11 0.14 0.12
0.00 0.00 0.00 0.01 0.01 0.01 0.01 0.01 0.02 0.03 0.04 0.05 0.06 0.07 0.08 0.08 0.06 0.06 0.03 0.02 0.03 0.04 0.04 0.03 0.09 0.12 0.14 0.14 0.12 0.07 0.08 0.10 0.11 0.13 0.13 0.14 0.14 0.12 0.10 0.11 0.14 0.19 0.21
0.00 0.00 0.00 0.00 0.00 0.00 0.01 0.01 0.01 0.02 0.02 0.03 0.04 0.06 0.08 0.09 0.11 0.09 0.06 0.04 0.06 0.08 0.08 0.08 0.11 0.15 0.12 0.14 0.11 0.08 0.08 0.06 0.03 0.02 0.02 0.04 0.06 0.12 0.18 0.19 0.19 0.19 0.21
0.00 0.00 0.00 0.00 0.00 0.00 0.00 0.01 0.01 0.01 0.02 0.03 0.03 0.06 0.07 0.07 0.10 0.10 0.08 0.11 0.12 0.13 0.13 0.14 0.17 0.20 0.17 0.11 0.11 0.08 0.02 0.01 0.00 0.00 0.00 0.00 0.00 0.01 0.04 0.09 0.12 0.13 0.14
0.00 0.00 0.00 0.00 0.00 0.00 0.00 0.01 0.01 0.01 0.02 0.05 0.06 0.08 0.08 0.08 0.09 0.11 0.12 0.13 0.16 0.15 0.15 0.18 0.22 0.21 0.18 0.09 0.07 0.06 0.02 0.00 0.00 0.00 0.00 0.00 0.00 0.00 0.00 0.00 0.01 0.02 0.03
0.00 0.00 0.00 0.00 0.00 0.00 0.00 0.01 0.01 0.02 0.03 0.07 0.09 0.10 0.10 0.09 0.09 0.08 0.08 0.12 0.19 0.21 0.22 0.21 0.22 0.19 0.14 0.05 0.01 0.01 0.00 0.00 0.00 0.00 0.00 0.00 0.00 0.00 0.00 0.00 0.00 0.00 0.00
0.00 0.00 0.00 0.00 0.00 0.00 0.00 0.01 0.02 0.02 0.03 0.04 0.05 0.06 0.07 0.07 0.08 0.10 0.13 0.17 0.19 0.23 0.24 0.18 0.17 0.18 0.11 0.04 0.01 0.00 0.00 0.00 0.00 0.01 0.01 0.01 0.00 0.00 0.00 0.00 0.00 0.00 0.00
0.01 0.00 0.00 0.00 0.00 0.00 0.00 0.01 0.02 0.02 0.02 0.02 0.02 0.04 0.05 0.06 0.07 0.13 0.19 0.20 0.20 0.24 0.23 0.18 0.15 0.15 0.11 0.07 0.01 0.00 0.00 0.00 0.00 0.01 0.01 0.01 0.01 0.01 0.00 0.00 0.00 0.00 0.00
0.03 0.01 0.00 0.00 0.00 0.00 0.00 0.01 0.01 0.01 0.02 0.01 0.02 0.03 0.04 0.05 0.08 0.16 0.23 0.21 0.20 0.21 0.20 0.19 0.18 0.13 0.12 0.06 0.01 0.00 0.00 0.00 0.00 0.00 0.00 0.00 0.00 0.00 0.00 0.00 0.00 0.00 0.00
0.05 0.03 0.01 0.00 0.00 0.00 0.00 0.00 0.00 0.00 0.00 0.01 0.03 0.04 0.04 0.05 0.06 0.09 0.19 0.28 0.28 0.25 0.26 0.24 0.22 0.17 0.11 0.06 0.02 0.01 0.01 0.00 0.00 0.00 0.00 0.00 0.00 0.00 0.00 0.00 0.00 0.00 0.00
0.05 0.05 0.03 0.01 0.01 0.01 0.00 0.00 0.00 0.00 0.00 0.00 0.01 0.03 0.03 0.03 0.05 0.06 0.09 0.18 0.24 0.26 0.29 0.24 0.18 0.14 0.07 0.04 0.02 0.01 0.01 0.00 0.00 0.00 0.00 0.00 0.00 0.00 0.00 0.00 0.00 0.00 0.00
0.06 0.07 0.05 0.02 0.01 0.00 0.00 0.00 0.00 0.00 0.00 0.00 0.01 0.03 0.02 0.01 0.01 0.02 0.02 0.05 0.08 0.11 0.13 0.11 0.07 0.05 0.03 0.02 0.01 0.00 0.00 0.00 0.00 0.00 0.00 0.00 0.00 0.00 0.00 0.00 0.00 0.00 0.00
0.05 0.08 0.08 0.05 0.02 0.01 0.00 0.00 0.00 0.00 0.00 0.00 0.00 0.00 0.00 0.00 0.00 0.00 0.00 0.00 0.01 0.02 0.02 0.02 0.02 0.01 0.01 0.01 0.01 0.01 0.01 0.00 0.00 0.00 0.00 0.00 0.00 0.00 0.00 0.00 0.00 0.00 0.00
0.05 0.08 0.09 0.08 0.05 0.02 0.00 0.00 0.00 0.00 0.00 0.00 0.00 0.00 0.00 0.00 0.00 0.00 0.00 0.00 0.00 0.00 0.00 0.00 0.00 0.00 0.00 0.00 0.00 0.00 0.01 0.00 0.00 0.00 0.00 0.01 0.01 0.01 0.01 0.00 0.00 0.00 0.00
0.08 0.12 0.14 0.14 0.11 0.05 0.00 0.00 0.00 0.00 0.00 0.00 0.00 0.00 0.00 0.00 0.00 0.00 0.00 0.00 0.00 0.00 0.00 0.00 0.00 0.00 0.00 0.00 0.00 0.00 0.00 0.00 0.00 0.00 0.00 0.00 0.00 0.02 0.04 0.02 0.00 0.00 0.00
0.11 0.16 0.21 0.22 0.18 0.10 0.02 0.00 0.00 0.00 0.00 0.00 0.00 0.00 0.00 0.00 0.00 0.00 0.00 0.00 0.00 0.00 0.00 0.00 0.00 0.00 0.00 0.00 0.00 0.00 0.00 0.00 0.00 0.00 0.00 0.00 0.00 0.01 0.04 0.03 0.01 0.00 0.00

GEFSMA_prec_meanprecacc_012.txt.gz
Total_Precipitation_Accumulation
0.33 0.35 0.28 0.29 0.26 0.33 0.45 0.38 0.25 0.20 0.21 0.22 0.17 0.11 0.07 0.08 0.12 0.16 0.13 0.20 0.25 0.19 0.16 0.14 0.15 0.17 0.18 0.20 0.18 0.16 0.16 0.16 0.13 0.13 0.13 0.11 0.08 0.06 0.03 0.03 0.04 0.04 0.04
0.50 0.42 0.42 0.43 0.44 0.57 0.55 0.43 0.33 0.25 0.17 0.17 0.11 0.07 0.06 0.07 0.10 0.18 0.17 0.22 0.26 0.18 0.13 0.14 0.14 0.13 0.15 0.18 0.19 0.19 0.17 0.15 0.12 0.10 0.09 0.08 0.09 0.09 0.07 0.05 0.08 0.06 0.06
0.65 0.65 0.60 0.55 0.62 0.63 0.60 0.60 0.50 0.32 0.20 0.22 0.22 0.16 0.08 0.11 0.18 0.16 0.13 0.12 0.13 0.16 0.14 0.14 0.17 0.13 0.12 0.15 0.22 0.23 0.18 0.15 0.11 0.08 0.05 0.06 0.09 0.09 0.11 0.08 0.09 0.10 0.10
0.65 0.65 0.59 0.62 0.69 0.56 0.47 0.44 0.32 0.23 0.19 0.22 0.18 0.09 0.05 0.11 0.21 0.20 0.12 0.07 0.07 0.05 0.06 0.14 0.21 0.16 0.16 0.22 0.23 0.22 0.16 0.08 0.06 0.07 0.05 0.04 0.06 0.05 0.05 0.05 0.04 0.08 0.09
0.29 0.31 0.29 0.34 0.42 0.39 0.31 0.25 0.28 0.23 0.17 0.21 0.25 0.14 0.09 0.13 0.18 0.20 0.14 0.06 0.06 0.07 0.03 0.06 0.11 0.12 0.15 0.20 0.20 0.16 0.15 0.13 0.08 0.07 0.06 0.06 0.06 0.04 0.01 0.02 0.03 0.04 0.05
0.13 0.10 0.10 0.12 0.14 0.17 0.17 0.16 0.14 0.16 0.11 0.12 0.17 0.11 0.11 0.14 0.18 0.18 0.12 0.06 0.04 0.04 0.02 0.02 0.05 0.05 0.06 0.10 0.11 0.08 0.09 0.13 0.09 0.08 0.05 0.08 0.13 0.11 0.03 0.01 0.02 0.03 0.05
0.01 0.01 0.01 0.01 0.01 0.02 0.03 0.05 0.07 0.08 0.06 0.12 0.13 0.08 0.07 0.06 0.08 0.11 0.10 0.08 0.03 0.02 0.02 0.02 0.03 0.05 0.06 0.07 0.07 0.05 0.04 0.06 0.08 0.10 0.10 0.08 0.11 0.14 0.09 0.05 0.04 0.06 0.07
0.00 0.00 0.00 0.00 0.00 0.00 0.00 0.00 0.02 0.03 0.04 0.05 0.08 0.09 0.05 0.03 0.03 0.04 0.07 0.05 0.03 0.04 0.03 0.03 0.03 0.08 0.11 0.15 0.16 0.08 0.06 0.05 0.08 0.12 0.15 0.12 0.08 0.06 0.07 0.07 0.06 0.06 0.07
0.00 0.00 0.00 0.00 0.00 0.00 0.01 0.01 0.01 0.02 0.03 0.03 0.05 0.09 0.06 0.03 0.03 0.04 0.04 0.03 0.04 0.05 0.02 0.01 0.01 0.03 0.06 0.13 0.20 0.18 0.10 0.09 0.14 0.16 0.16 0.13 0.06 0.02 0.03 0.06 0.08 0.09 0.06
0.00 0.00 0.00 0.00 0.01 0.01 0.02 0.02 0.02 0.04 0.05 0.05 0.06 0.09 0.10 0.10 0.09 0.06 0.04 0.03 0.07 0.06 0.04 0.03 0.02 0.05 0.11 0.17 0.24 0.22 0.15 0.12 0.12 0.11 0.10 0.09 0.07 0.04 0.04 0.08 0.15 0.19 0.16
0.00 0.00 0.00 0.01 0.01 0.01 0.02 0.02 0.03 0.05 0.07 0.09 0.09 0.10 0.13 0.16 0.16 0.13 0.06 0.06 0.09 0.05 0.03 0.03 0.07 0.09 0.11 0.15 0.29 0.22 0.13 0.13 0.13 0.13 0.11 0.09 0.10 0.10 0.09 0.10 0.21 0.28 0.25
0.00 0.00 0.00 0.01 0.01 0.01 0.01 0.02 0.03 0.05 0.07 0.09 0.11 0.12 0.14 0.15 0.16 0.19 0.12 0.09 0.10 0.08 0.07 0.06 0.11 0.15 0.17 0.20 0.22 0.19 0.18 0.17 0.15 0.16 0.15 0.16 0.17 0.15 0.15 0.19 0.26 0.34 0.37
0.00 0.00 0.00 0.00 0.00 0.00 0.01 0.01 0.02 0.03 0.04 0.07 0.09 0.10 0.14 0.15 0.18 0.20 0.16 0.14 0.19 0.21 0.25 0.22 0.20 0.24 0.22 0.33 0.26 0.22 0.18 0.13 0.06 0.03 0.02 0.04 0.07 0.14 0.21 0.24 0.27 0.30 0.35
0.00 0.00 0.00 0.00 0.00 0.00 0.00 0.01 0.01 0.01 0.03 0.06 0.06 0.12 0.14 0.12 0.17 0.17 0.15 0.21 0.26 0.31 0.36 0.34 0.34 0.42 0.43 0.37 0.33 0.20 0.08 0.04 0.01 0.00 0.00 0.00 0.00 0.01 0.05 0.12 0.18 0.23 0.29
0.03 0.02 0.01 0.00 0.00 0.00 0.00 0.01 0.01 0.02 0.04 0.07 0.11 0.15 0.17 0.17 0.18 0.21 0.23 0.28 0.33 0.31 0.36 0.45 0.47 0.47 0.44 0.27 0.21 0.13 0.04 0.01 0.00 0.00 0.00 0.00 0.00 0.00 0.00 0.01 0.04 0.07 0.11
0.08 0.05 0.03 0.02 0.01 0.01 0.01 0.01 0.02 0.04 0.06 0.12 0.16 0.18 0.22 0.22 0.23 0.25 0.26 0.33 0.42 0.41 0.44 0.49 0.47 0.42 0.38 0.18 0.11 0.06 0.01 0.00 0.00 0.00 0.00 0.00 0.00 0.00 0.00 0.00 0.00 0.01 0.02
0.14 0.10 0.08 0.07 0.04 0.02 0.01 0.02 0.04 0.04 0.05 0.08 0.10 0.14 0.19 0.23 0.26 0.28 0.35 0.40 0.44 0.50 0.50 0.43 0.42 0.43 0.36 0.20 0.09 0.04 0.01 0.00 0.00 0.01 0.01 0.01 0.00 0.00 0.00 0.00 0.00 0.00 0.00
0.14 0.13 0.12 0.10 0.06 0.04 0.02 0.02 0.03 0.03 0.04 0.04 0.05 0.09 0.12 0.14 0.20 0.26 0.34 0.39 0.44 0.54 0.55 0.40 0.34 0.34 0.31 0.22 0.11 0.07 0.02 0.01 0.01 0.01 0.01 0.01 0.01 0.01 0.00 0.00 0.00 0.00 0.00
0.13 0.13 0.13 0.10 0.08 0.06 0.04 0.03 0.03 0.03 0.03 0.03 0.04 0.07 0.08 0.11 0.16 0.21 0.30 0.33 0.37 0.52 0.57 0.47 0.37 0.30 0.29 0.20 0.13 0.08 0.04 0.02 0.01 0.00 0.00 0.00 0.00 0.00 0.00 0.00 0.00 0.00 0.00
0.11 0.12 0.12 0.11 0.10 0.08 0.05 0.04 0.02 0.01 0.01 0.03 0.06 0.07 0.08 0.09 0.11 0.11 0.21 0.33 0.39 0.46 0.54 0.52 0.47 0.41 0.32 0.24 0.19 0.14 0.08 0.04 0.01 0.00 0.00 0.00 0.00 0.00 0.00 0.00 0.00 0.00 0.00
0.09 0.12 0.12 0.12 0.11 0.09 0.06 0.05 0.04 0.02 0.01 0.01 0.03 0.06 0.04 0.05 0.06 0.07 0.10 0.22 0.35 0.49 0.66 0.69 0.62 0.58 0.46 0.34 0.27 0.19 0.13 0.07 0.02 0.01 0.01 0.01 0.02 0.01 0.00 0.00 0.00 0.00 0.00
0.09 0.12 0.13 0.13 0.12 0.10 0.07 0.04 0.03 0.02 0.01 0.01 0.03 0.06 0.05 0.02 0.01 0.02 0.03 0.09 0.18 0.32 0.50 0.66 0.70 0.65 0.56 0.48 0.36 0.23 0.14 0.07 0.04 0.05 0.04 0.04 0.02 0.01 0.00 0.00 0.00 0.00 0.00
0.07 0.12 0.14 0.15 0.14 0.14 0.11 0.06 0.04 0.02 0.02 0.01 0.02 0.03 0.03 0.02 0.01 0.00 0.01 0.02 0.05 0.12 0.23 0.36 0.46 0.48 0.49 0.45 0.32 0.19 0.13 0.08 0.05 0.04 0.05 0.03 0.01 0.00 0.00 0.00 0.00 0.00 0.00
0.07 0.10 0.13 0.15 0.17 0.17 0.14 0.09 0.06 0.03 0.02 0.01 0.01 0.01 0.03 0.04 0.03 0.01 0.01 0.01 0.01 0.03 0.08 0.14 0.19 0.22 0.22 0.20 0.16 0.13 0.10 0.06 0.04 0.03 0.02 0.03 0.02 0.01 0.01 0.00 0.00 0.00 0.00
0.10 0.13 0.16 0.18 0.20 0.21 0.16 0.11 0.07 0.04 0.02 0.01 0.01 0.01 0.02 0.03 0.01 0.00 0.01 0.01 0.01 0.01 0.02 0.03 0.04 0.05 0.04 0.03 0.04 0.04 0.02 0.01 0.01 0.01 0.01 0.02 0.02 0.05 0.06 0.03 0.00 0.00 0.00
0.14 0.17 0.22 0.26 0.28 0.27 0.21 0.14 0.11 0.06 0.04 0.03 0.03 0.02 0.01 0.01 0.00 0.01 0.02 0.01 0.00 0.00 0.00 0.01 0.01 0.01 0.01 0.00 0.00 0.01 0.01 0.00 0.00 0.00 0.00 0.01 0.01 0.04 0.08 0.05 0.01 0.00 0.00

GEFSMA_prec_meanprecacc_018.txt.gz
Total_Precipitation_Accumulation
0.68 0.69 0.50 0.42 0.35 0.41 0.55 0.48 0.34 0.31 0.33 0.32 0.26 0.21 0.20 0.19 0.25 0.29 0.28 0.35 0.37 0.29 0.29 0.27 0.25 0.24 0.22 0.22 0.19 0.16 0.16 0.16 0.13 0.13 0.13 0.11 0.08 0.06 0.03 0.03 0.04 0.04 0.04
0.81 0.65 0.59 0.56 0.54 0.65 0.63 0.51 0.42 0.37 0.32 0.34 0.27 0.23 0.22 0.21 0.23 0.31 0.32 0.38 0.42 0.30 0.26 0.31 0.29 0.25 0.23 0.22 0.21 0.20 0.17 0.15 0.12 0.10 0.09 0.08 0.09 0.09 0.07 0.05 0.08 0.06 0.06
0.83 0.80 0.71 0.64 0.70 0.70 0.67 0.67 0.58 0.44 0.34 0.37 0.35 0.32 0.24 0.24 0.31 0.28 0.24 0.24 0.27 0.34 0.32 0.31 0.33 0.27 0.25 0.24 0.26 0.26 0.19 0.15 0.11 0.08 0.05 0.06 0.09 0.09 0.11 0.08 0.09 0.10 0.10
0.70 0.71 0.64 0.67 0.73 0.59 0.51 0.49 0.39 0.31 0.26 0.28 0.23 0.15 0.12 0.18 0.28 0.28 0.19 0.12 0.13 0.12 0.18 0.31 0.38 0.29 0.29 0.33 0.31 0.27 0.19 0.10 0.06 0.07 0.05 0.04 0.06 0.05 0.05 0.05 0.04 0.08 0.09
0.30 0.32 0.30 0.35 0.43 0.40 0.33 0.26 0.30 0.25 0.20 0.24 0.27 0.16 0.12 0.16 0.21 0.22 0.16 0.09 0.09 0.10 0.08 0.15 0.23 0.22 0.30 0.35 0.32 0.26 0.22 0.17 0.09 0.08 0.07 0.06 0.06 0.04 0.01 0.02 0.03 0.04 0.05
0.13 0.10 0.10 0.12 0.15 0.17 0.18 0.17 0.14 0.17 0.12 0.13 0.17 0.11 0.12 0.14 0.18 0.18 0.12 0.07 0.05 0.05 0.05 0.08 0.12 0.14 0.21 0.26 0.26 0.22 0.22 0.22 0.15 0.11 0.07 0.09 0.14 0.11 0.03 0.01 0.02 0.04 0.05
0.01 0.01 0.01 0.01 0.01 0.02 0.03 0.05 0.07 0.08 0.06 0.12 0.13 0.08 0.07 0.06 0.09 0.11 0.10 0.08 0.04 0.03 0.04 0.06 0.08 0.11 0.13 0.18 0.23 0.23 0.24 0.25 0.22 0.19 0.15 0.12 0.14 0.16 0.10 0.05 0.04 0.06 0.07
0.00 0.00 0.00 0.00 0.00 0.00 0.00 0.00 0.02 0.03 0.04 0.05 0.08 0.09 0.05 0.03 0.04 0.04 0.07 0.06 0.04 0.06 0.05 0.06 0.08 0.14 0.18 0.25 0.30 0.25 0.28 0.29 0.32 0.32 0.30 0.23 0.16 0.13 0.11 0.09 0.06 0.06 0.07
0.00 0.00 0.00 0.00 0.00 0.00 0.01 0.01 0.01 0.02 0.03 0.03 0.06 0.10 0.07 0.03 0.03 0.04 0.04 0.05 0.06 0.07 0.05 0.07 0.09 0.10 0.14 0.26 0.41 0.45 0.38 0.35 0.44 0.46 0.43 0.34 0.22 0.16 0.15 0.13 0.12 0.11 0.07
0.00 0.00 0.00 0.00 0.01 0.01 0.02 0.02 0.02 0.04 0.05 0.05 0.06 0.10 0.11 0.12 0.11 0.06 0.04 0.04 0.09 0.10 0.09 0.10 0.11 0.14 0.23 0.35 0.47 0.55 0.45 0.39 0.43 0.44 0.41 0.36 0.30 0.23 0.20 0.20 0.24 0.24 0.18
0.01 0.00 0.00 0.01 0.01 0.01 0.02 0.02 0.03 0.05 0.07 0.09 0.09 0.11 0.14 0.17 0.18 0.15 0.06 0.06 0.10 0.08 0.08 0.11 0.18 0.20 0.25 0.41 0.63 0.60 0.46 0.38 0.40 0.44 0.39 0.35 0.31 0.27 0.21 0.19 0.28 0.34 0.30
0.01 0.01 0.01 0.01 0.01 0.01 0.01 0.02 0.03 0.05 0.07 0.09 0.11 0.12 0.15 0.15 0.16 0.20 0.13 0.10 0.11 0.08 0.09 0.10 0.17 0.24 0.32 0.41 0.47 0.50 0.50 0.43 0.41 0.44 0.44 0.42 0.35 0.27 0.24 0.25 0.32 0.40 0.43
0.04 0.03 0.02 0.02 0.02 0.02 0.01 0.01 0.02 0.03 0.04 0.07 0.09 0.11 0.15 0.15 0.19 0.21 0.17 0.14 0.20 0.21 0.26 0.24 0.25 0.36 0.40 0.53 0.48 0.47 0.45 0.38 0.29 0.25 0.23 0.24 0.24 0.24 0.27 0.27 0.29 0.32 0.39
0.17 0.14 0.08 0.04 0.03 0.02 0.01 0.01 0.01 0.01 0.03 0.06 0.06 0.12 0.14 0.12 0.17 0.17 0.16 0.23 0.27 0.31 0.36 0.35 0.39 0.57 0.73 0.69 0.66 0.52 0.33 0.24 0.17 0.14 0.11 0.09 0.08 0.07 0.07 0.13 0.19 0.24 0.30
0.22 0.19 0.14 0.09 0.05 0.03 0.02 0.02 0.01 0.02 0.04 0.07 0.11 0.15 0.17 0.17 0.19 0.22 0.24 0.30 0.35 0.32 0.36 0.47 0.53 0.61 0.71 0.64 0.58 0.45 0.27 0.17 0.11 0.08 0.06 0.04 0.03 0.02 0.01 0.01 0.04 0.07 0.12
0.18 0.16 0.14 0.10 0.07 0.05 0.05 0.04 0.03 0.04 0.07 0.12 0.16 0.19 0.22 0.22 0.23 0.26 0.27 0.35 0.45 0.43 0.45 0.51 0.54 0.55 0.54 0.40 0.36 0.30 0.19 0.11 0.06 0.04 0.02 0.01 0.01 0.00 0.00 0.00 0.00 0.01 0.02
0.16 0.14 0.13 0.12 0.09 0.06 0.05 0.06 0.06 0.05 0.06 0.08 0.10 0.14 0.19 0.23 0.26 0.29 0.36 0.42 0.45 0.52 0.52 0.46 0.51 0.55 0.48 0.32 0.22 0.18 0.12 0.07 0.03 0.03 0.02 0.01 0.01 0.00 0.00 0.00 0.00 0.00 0.00
0.14 0.14 0.13 0.11 0.08 0.07 0.07 0.07 0.07 0.05 0.05 0.05 0.05 0.09 0.12 0.14 0.20 0.26 0.34 0.39 0.45 0.57 0.59 0.44 0.43 0.47 0.42 0.31 0.20 0.16 0.09 0.04 0.02 0.02 0.02 0.01 0.01 0.01 0.00 0.00 0.00 0.00 0.00
0.13 0.13 0.13 0.11 0.09 0.07 0.07 0.07 0.07 0.06 0.06 0.05 0.06 0.08 0.08 0.11 0.16 0.21 0.30 0.33 0.38 0.55 0.63 0.54 0.47 0.44 0.42 0.29 0.20 0.15 0.08 0.04 0.02 0.01 0.01 0.00 0.00 0.00 0.00 0.00 0.00 0.00 0.00
0.11 0.12 0.12 0.11 0.10 0.08 0.06 0.06 0.06 0.05 0.05 0.06 0.09 0.09 0.08 0.10 0.11 0.11 0.21 0.33 0.40 0.48 0.58 0.58 0.58 0.56 0.45 0.33 0.27 0.20 0.13 0.06 0.03 0.01 0.00 0.00 0.00 0.00 0.00 0.00 0.00 0.00 0.00
0.09 0.12 0.12 0.12 0.11 0.10 0.07 0.06 0.07 0.06 0.05 0.05 0.07 0.09 0.06 0.05 0.06 0.07 0.10 0.22 0.35 0.51 0.68 0.75 0.73 0.75 0.62 0.46 0.35 0.25 0.18 0.11 0.05 0.02 0.02 0.02 0.02 0.01 0.00 0.00 0.00 0.00 0.00
0.09 0.12 0.13 0.13 0.13 0.10 0.08 0.06 0.06 0.06 0.06 0.06 0.07 0.09 0.07 0.02 0.01 0.02 0.03 0.09 0.19 0.33 0.52 0.71 0.81 0.85 0.77 0.63 0.46 0.31 0.20 0.10 0.08 0.06 0.05 0.04 0.02 0.01 0.00 0.00 0.00 0.00 0.00
0.08 0.13 0.15 0.15 0.15 0.15 0.12 0.08 0.06 0.06 0.06 0.07 0.07 0.07 0.06 0.03 0.02 0.00 0.01 0.02 0.05 0.13 0.25 0.41 0.56 0.63 0.67 0.64 0.48 0.33 0.21 0.13 0.08 0.07 0.06 0.03 0.01 0.00 0.00 0.00 0.00 0.00 0.00
0.08 0.12 0.14 0.16 0.17 0.17 0.14 0.10 0.08 0.07 0.08 0.08 0.08 0.07 0.07 0.06 0.03 0.01 0.01 0.01 0.02 0.04 0.10 0.18 0.28 0.37 0.41 0.39 0.32 0.27 0.20 0.13 0.09 0.06 0.04 0.04 0.02 0.01 0.01 0.00 0.00 0.00 0.00
0.10 0.14 0.17 0.19 0.21 0.21 0.17 0.11 0.09 0.08 0.09 0.10 0.10 0.09 0.08 0.06 0.02 0.01 0.01 0.01 0.01 0.02 0.04 0.07 0.13 0.19 0.22 0.19 0.15 0.13 0.11 0.07 0.06 0.04 0.02 0.02 0.02 0.05 0.06 0.03 0.00 0.00 0.00
0.14 0.18 0.22 0.26 0.28 0.27 0.22 0.15 0.12 0.09 0.10 0.12 0.14 0.14 0.11 0.05 0.02 0.01 0.02 0.01 0.00 0.00 0.01 0.02 0.04 0.06 0.08 0.08 0.08 0.07 0.05 0.03 0.02 0.02 0.01 0.01 0.01 0.04 0.08 0.05 0.01 0.00 0.00

GEFSMA_prec_meanprecacc_024.txt.gz
Total_Precipitation_Accumulation
0.86 0.90 0.69 0.62 0.57 0.65 0.81 0.75 0.58 0.53 0.57 0.56 0.47 0.44 0.40 0.32 0.35 0.41 0.36 0.43 0.49 0.43 0.46 0.46 0.43 0.44 0.40 0.37 0.32 0.30 0.30 0.29 0.22 0.18 0.17 0.14 0.12 0.09 0.05 0.04 0.04 0.04 0.04
1.05 0.88 0.81 0.75 0.71 0.81 0.79 0.69 0.60 0.57 0.57 0.61 0.50 0.45 0.41 0.34 0.35 0.43 0.41 0.44 0.49 0.41 0.40 0.47 0.45 0.40 0.40 0.38 0.36 0.33 0.29 0.27 0.22 0.18 0.13 0.11 0.12 0.13 0.10 0.07 0.10 0.07 0.06
1.05 1.02 0.89 0.77 0.80 0.80 0.78 0.80 0.74 0.61 0.50 0.53 0.49 0.46 0.36 0.35 0.40 0.37 0.31 0.28 0.30 0.37 0.38 0.40 0.42 0.39 0.36 0.37 0.41 0.41 0.32 0.25 0.20 0.15 0.10 0.10 0.11 0.11 0.13 0.12 0.12 0.13 0.12
0.85 0.85 0.73 0.72 0.77 0.63 0.56 0.56 0.49 0.40 0.34 0.36 0.28 0.19 0.16 0.22 0.31 0.31 0.21 0.14 0.14 0.13 0.20 0.34 0.44 0.36 0.39 0.46 0.47 0.45 0.33 0.19 0.13 0.13 0.11 0.08 0.08 0.06 0.06 0.07 0.08 0.13 0.12
0.40 0.38 0.33 0.37 0.44 0.41 0.34 0.29 0.32 0.27 0.22 0.25 0.29 0.18 0.13 0.17 0.22 0.23 0.17 0.09 0.10 0.11 0.08 0.16 0.25 0.26 0.40 0.49 0.48 0.42 0.34 0.26 0.17 0.15 0.14 0.13 0.11 0.05 0.02 0.03 0.04 0.07 0.09
0.20 0.14 0.11 0.13 0.15 0.17 0.18 0.17 0.14 0.17 0.12 0.13 0.18 0.12 0.12 0.14 0.19 0.19 0.12 0.07 0.06 0.05 0.05 0.08 0.12 0.14 0.25 0.35 0.36 0.34 0.34 0.34 0.27 0.22 0.17 0.19 0.24 0.17 0.05 0.02 0.03 0.05 0.07
0.07 0.05 0.02 0.01 0.02 0.02 0.03 0.05 0.07 0.08 0.06 0.12 0.13 0.08 0.07 0.06 0.09 0.11 0.10 0.08 0.04 0.03 0.04 0.06 0.08 0.11 0.14 0.20 0.28 0.31 0.37 0.42 0.37 0.32 0.28 0.23 0.28 0.29 0.16 0.09 0.06 0.07 0.10
0.06 0.03 0.01 0.00 0.00 0.00 0.00 0.00 0.02 0.03 0.04 0.05 0.08 0.09 0.05 0.03 0.04 0.04 0.07 0.06 0.04 0.06 0.05 0.07 0.09 0.14 0.19 0.26 0.31 0.28 0.36 0.43 0.48 0.47 0.45 0.38 0.31 0.27 0.23 0.19 0.13 0.10 0.10
0.05 0.03 0.01 0.00 0.00 0.00 0.01 0.01 0.01 0.02 0.03 0.03 0.06 0.10 0.07 0.03 0.03 0.04 0.04 0.05 0.06 0.07 0.05 0.07 0.09 0.10 0.14 0.26 0.42 0.47 0.42 0.43 0.57 0.63 0.58 0.48 0.36 0.30 0.30 0.30 0.27 0.22 0.14
0.07 0.05 0.03 0.01 0.01 0.01 0.02 0.02 0.02 0.04 0.05 0.05 0.06 0.10 0.11 0.12 0.11 0.06 0.04 0.04 0.09 0.10 0.09 0.10 0.11 0.14 0.24 0.36 0.48 0.56 0.46 0.42 0.50 0.57 0.55 0.50 0.42 0.35 0.34 0.37 0.46 0.46 0.34
0.13 0.10 0.08 0.06 0.03 0.02 0.02 0.02 0.03 0.05 0.07 0.09 0.09 0.11 0.14 0.17 0.18 0.15 0.06 0.06 0.10 0.08 0.08 0.11 0.18 0.20 0.25 0.41 0.64 0.61 0.47 0.39 0.43 0.49 0.48 0.47 0.47 0.42 0.35 0.33 0.44 0.52 0.47
0.15 0.14 0.13 0.11 0.09 0.05 0.03 0.02 0.03 0.05 0.07 0.09 0.11 0.12 0.15 0.15 0.17 0.20 0.13 0.10 0.11 0.08 0.09 0.10 0.17 0.24 0.32 0.42 0.47 0.51 0.51 0.45 0.44 0.48 0.51 0.51 0.48 0.44 0.41 0.42 0.49 0.57 0.60
0.16 0.15 0.14 0.14 0.13 0.11 0.07 0.04 0.03 0.03 0.05 0.07 0.09 0.11 0.15 0.15 0.19 0.21 0.17 0.14 0.20 0.21 0.26 0.24 0.25 0.36 0.40 0.53 0.48 0.48 0.46 0.42 0.33 0.29 0.29 0.35 0.41 0.45 0.48 0.49 0.51 0.52 0.56
0.22 0.21 0.15 0.13 0.14 0.14 0.12 0.08 0.05 0.03 0.03 0.06 0.06 0.12 0.14 0.12 0.17 0.17 0.17 0.23 0.27 0.32 0.36 0.35 0.39 0.57 0.73 0.69 0.66 0.53 0.35 0.29 0.22 0.20 0.18 0.19 0.23 0.30 0.33 0.37 0.41 0.43 0.46
0.23 0.21 0.17 0.14 0.13 0.14 0.14 0.12 0.09 0.07 0.06 0.08 0.11 0.15 0.17 0.17 0.19 0.22 0.25 0.30 0.35 0.32 0.37 0.47 0.53 0.62 0.71 0.64 0.59 0.47 0.30 0.24 0.18 0.15 0.14 0.14 0.13 0.15 0.18 0.18 0.21 0.22 0.23
0.18 0.17 0.16 0.13 0.11 0.12 0.13 0.13 0.12 0.12 0.12 0.14 0.17 0.19 0.22 0.22 0.23 0.26 0.27 0.35 0.45 0.43 0.45 0.51 0.54 0.55 0.54 0.40 0.36 0.31 0.24 0.19 0.13 0.10 0.10 0.09 0.08 0.08 0.09 0.09 0.09 0.08 0.08
0.16 0.14 0.14 0.13 0.12 0.11 0.13 0.14 0.15 0.15 0.13 0.14 0.13 0.15 0.20 0.24 0.26 0.29 0.36 0.42 0.45 0.53 0.52 0.46 0.51 0.56 0.48 0.32 0.22 0.19 0.16 0.12 0.08 0.08 0.08 0.06 0.05 0.04 0.04 0.04 0.03 0.03 0.02
0.14 0.14 0.13 0.12 0.09 0.09 0.12 0.16 0.18 0.17 0.16 0.15 0.13 0.15 0.15 0.17 0.21 0.26 0.34 0.39 0.45 0.57 0.59 0.44 0.43 0.48 0.43 0.32 0.20 0.17 0.11 0.08 0.06 0.06 0.06 0.06 0.04 0.03 0.02 0.01 0.01 0.01 0.01
0.13 0.13 0.13 0.11 0.09 0.08 0.08 0.11 0.15 0.18 0.20 0.19 0.18 0.18 0.16 0.16 0.18 0.23 0.31 0.33 0.38 0.55 0.63 0.55 0.48 0.46 0.44 0.32 0.23 0.17 0.10 0.07 0.05 0.04 0.04 0.03 0.02 0.01 0.01 0.01 0.00 0.00 0.00
0.11 0.12 0.12 0.11 0.10 0.08 0.06 0.06 0.07 0.10 0.14 0.18 0.23 0.22 0.19 0.17 0.16 0.14 0.23 0.35 0.40 0.48 0.58 0.59 0.60 0.59 0.50 0.38 0.30 0.23 0.16 0.09 0.05 0.03 0.02 0.02 0.01 0.01 0.00 0.00 0.00 0.00 0.00
0.09 0.12 0.12 0.12 0.11 0.10 0.07 0.06 0.07 0.06 0.07 0.10 0.15 0.20 0.19 0.16 0.14 0.12 0.13 0.23 0.36 0.51 0.68 0.75 0.74 0.78 0.67 0.53 0.40 0.28 0.21 0.14 0.08 0.04 0.03 0.02 0.02 0.01 0.00 0.00 0.00 0.00 0.00
0.09 0.13 0.13 0.13 0.13 0.10 0.08 0.06 0.06 0.06 0.07 0.07 0.10 0.16 0.16 0.15 0.11 0.09 0.08 0.11 0.19 0.33 0.53 0.71 0.83 0.87 0.81 0.66 0.49 0.34 0.23 0.13 0.11 0.10 0.07 0.05 0.03 0.01 0.00 0.00 0.00 0.00 0.00
0.09 0.13 0.15 0.15 0.15 0.15 0.12 0.08 0.06 0.06 0.07 0.07 0.08 0.10 0.11 0.10 0.11 0.08 0.05 0.05 0.06 0.13 0.25 0.41 0.57 0.64 0.70 0.66 0.51 0.36 0.24 0.16 0.11 0.09 0.07 0.04 0.02 0.00 0.00 0.00 0.00 0.00 0.00
0.10 0.13 0.14 0.16 0.17 0.18 0.14 0.10 0.08 0.07 0.08 0.08 0.09 0.09 0.10 0.10 0.09 0.08 0.06 0.04 0.03 0.04 0.10 0.18 0.29 0.39 0.44 0.43 0.37 0.32 0.26 0.19 0.15 0.10 0.05 0.04 0.02 0.02 0.01 0.00 0.00 0.00 0.00
0.15 0.18 0.19 0.20 0.21 0.21 0.17 0.11 0.09 0.08 0.09 0.10 0.11 0.12 0.13 0.11 0.08 0.07 0.07 0.04 0.02 0.02 0.04 0.08 0.15 0.24 0.29 0.29 0.24 0.22 0.20 0.15 0.13 0.09 0.04 0.02 0.02 0.05 0.06 0.03 0.00 0.00 0.00
0.21 0.23 0.26 0.28 0.29 0.28 0.22 0.15 0.12 0.09 0.11 0.12 0.15 0.16 0.16 0.13 0.10 0.08 0.07 0.05 0.02 0.01 0.01 0.03 0.08 0.14 0.16 0.19 0.19 0.14 0.11 0.10 0.08 0.06 0.03 0.01 0.01 0.04 0.08 0.05 0.01 0.00 0.00

GEFSMA_prec_meanprecacc_030.txt.gz
Total_Precipitation_Accumulation
0.98 1.02 0.79 0.73 0.68 0.80 0.97 0.90 0.71 0.68 0.73 0.75 0.68 0.61 0.55 0.43 0.42 0.45 0.40 0.47 0.56 0.52 0.55 0.56 0.52 0.53 0.53 0.52 0.49 0.47 0.47 0.46 0.39 0.32 0.27 0.20 0.18 0.18 0.13 0.09 0.06 0.04 0.04
1.20 1.03 0.96 0.92 0.86 0.99 0.99 0.91 0.83 0.81 0.80 0.84 0.69 0.59 0.54 0.45 0.43 0.49 0.46 0.49 0.54 0.48 0.48 0.55 0.53 0.49 0.52 0.51 0.52 0.52 0.49 0.46 0.37 0.29 0.24 0.19 0.17 0.20 0.20 0.17 0.17 0.11 0.07
1.24 1.21 1.08 0.94 0.96 0.99 1.00 1.05 1.03 0.93 0.79 0.78 0.69 0.64 0.54 0.48 0.50 0.46 0.38 0.33 0.35 0.41 0.43 0.45 0.49 0.45 0.45 0.47 0.54 0.56 0.49 0.42 0.34 0.26 0.20 0.18 0.16 0.15 0.18 0.20 0.23 0.21 0.16
1.08 1.08 0.93 0.88 0.93 0.78 0.72 0.73 0.70 0.66 0.64 0.68 0.59 0.45 0.38 0.41 0.43 0.41 0.28 0.19 0.19 0.16 0.23 0.38 0.47 0.41 0.44 0.52 0.57 0.57 0.44 0.30 0.23 0.22 0.19 0.15 0.13 0.09 0.08 0.10 0.14 0.21 0.18
0.65 0.62 0.53 0.53 0.58 0.53 0.45 0.41 0.48 0.47 0.46 0.53 0.59 0.42 0.34 0.38 0.37 0.33 0.25 0.13 0.15 0.14 0.11 0.19 0.27 0.28 0.42 0.52 0.56 0.54 0.46 0.35 0.25 0.23 0.23 0.21 0.17 0.09 0.03 0.04 0.06 0.10 0.13
0.46 0.36 0.28 0.26 0.25 0.25 0.25 0.26 0.24 0.28 0.26 0.28 0.32 0.26 0.28 0.27 0.29 0.27 0.18 0.11 0.09 0.08 0.07 0.11 0.15 0.15 0.26 0.36 0.40 0.41 0.43 0.45 0.35 0.29 0.24 0.28 0.32 0.22 0.06 0.03 0.03 0.06 0.09
0.29 0.24 0.18 0.14 0.10 0.09 0.09 0.11 0.13 0.13 0.12 0.18 0.19 0.14 0.12 0.11 0.13 0.15 0.14 0.11 0.05 0.04 0.06 0.08 0.09 0.12 0.15 0.20 0.28 0.33 0.42 0.50 0.46 0.40 0.35 0.31 0.37 0.37 0.20 0.10 0.06 0.08 0.11
0.23 0.19 0.16 0.14 0.09 0.06 0.04 0.04 0.05 0.06 0.06 0.07 0.10 0.11 0.06 0.05 0.04 0.05 0.08 0.07 0.05 0.06 0.06 0.07 0.09 0.15 0.19 0.26 0.31 0.28 0.38 0.48 0.57 0.56 0.54 0.46 0.41 0.36 0.29 0.24 0.16 0.11 0.10
0.17 0.15 0.13 0.11 0.09 0.07 0.06 0.05 0.04 0.05 0.05 0.04 0.07 0.11 0.08 0.03 0.03 0.04 0.04 0.05 0.06 0.07 0.05 0.07 0.09 0.10 0.15 0.27 0.42 0.47 0.43 0.44 0.62 0.72 0.68 0.56 0.43 0.36 0.36 0.37 0.33 0.26 0.17
0.16 0.14 0.11 0.08 0.06 0.06 0.07 0.06 0.04 0.06 0.07 0.06 0.06 0.10 0.11 0.12 0.11 0.06 0.04 0.04 0.09 0.10 0.09 0.10 0.11 0.14 0.24 0.36 0.48 0.56 0.46 0.42 0.53 0.63 0.64 0.58 0.49 0.41 0.39 0.44 0.54 0.52 0.40
0.18 0.17 0.17 0.14 0.10 0.06 0.06 0.05 0.05 0.06 0.08 0.09 0.10 0.11 0.14 0.17 0.18 0.15 0.06 0.06 0.10 0.08 0.08 0.11 0.18 0.20 0.25 0.41 0.64 0.61 0.47 0.39 0.44 0.52 0.53 0.52 0.52 0.47 0.39 0.37 0.51 0.59 0.53
0.18 0.17 0.18 0.18 0.17 0.15 0.10 0.06 0.05 0.07 0.09 0.11 0.11 0.12 0.15 0.15 0.17 0.20 0.13 0.10 0.11 0.08 0.09 0.10 0.17 0.24 0.32 0.42 0.47 0.51 0.51 0.45 0.44 0.49 0.52 0.54 0.52 0.48 0.45 0.47 0.56 0.65 0.68
0.16 0.16 0.16 0.17 0.18 0.18 0.17 0.13 0.09 0.07 0.08 0.10 0.10 0.12 0.15 0.15 0.19 0.21 0.17 0.15 0.20 0.21 0.26 0.24 0.25 0.36 0.40 0.53 0.49 0.48 0.46 0.42 0.34 0.30 0.31 0.37 0.43 0.47 0.51 0.53 0.58 0.61 0.67
0.22 0.21 0.16 0.14 0.16 0.17 0.18 0.16 0.14 0.12 0.10 0.10 0.09 0.14 0.15 0.12 0.18 0.17 0.17 0.23 0.27 0.32 0.36 0.35 0.39 0.57 0.73 0.69 0.67 0.54 0.36 0.30 0.23 0.21 0.19 0.20 0.25 0.33 0.37 0.43 0.48 0.51 0.57
0.23 0.21 0.18 0.14 0.14 0.15 0.16 0.17 0.16 0.17 0.17 0.17 0.17 0.20 0.21 0.20 0.20 0.22 0.25 0.31 0.36 0.32 0.37 0.47 0.53 0.62 0.71 0.64 0.59 0.48 0.31 0.25 0.20 0.16 0.16 0.16 0.15 0.19 0.25 0.27 0.29 0.33 0.37
0.18 0.17 0.16 0.13 0.11 0.12 0.14 0.15 0.17 0.21 0.23 0.27 0.30 0.31 0.31 0.28 0.27 0.28 0.29 0.36 0.45 0.43 0.45 0.51 0.54 0.56 0.54 0.40 0.36 0.31 0.24 0.20 0.15 0.12 0.12 0.13 0.13 0.13 0.16 0.17 0.20 0.22 0.24
0.17 0.14 0.14 0.13 0.12 0.11 0.13 0.15 0.18 0.20 0.23 0.28 0.33 0.35 0.35 0.36 0.36 0.35 0.39 0.43 0.46 0.53 0.52 0.46 0.51 0.56 0.49 0.33 0.23 0.19 0.16 0.12 0.09 0.10 0.11 0.11 0.11 0.11 0.12 0.12 0.15 0.17 0.17
0.14 0.14 0.13 0.12 0.10 0.10 0.12 0.16 0.19 0.20 0.22 0.26 0.32 0.39 0.41 0.38 0.38 0.38 0.44 0.45 0.48 0.58 0.60 0.45 0.44 0.49 0.44 0.34 0.22 0.18 0.11 0.08 0.07 0.09 0.10 0.12 0.12 0.11 0.09 0.08 0.08 0.09 0.09
0.13 0.13 0.13 0.11 0.09 0.08 0.08 0.11 0.15 0.20 0.24 0.26 0.30 0.37 0.42 0.47 0.46 0.44 0.46 0.45 0.46 0.59 0.65 0.56 0.49 0.47 0.46 0.33 0.24 0.17 0.11 0.07 0.05 0.06 0.08 0.09 0.10 0.09 0.08 0.07 0.06 0.04 0.03
0.11 0.12 0.13 0.12 0.11 0.09 0.07 0.06 0.08 0.11 0.15 0.22 0.30 0.34 0.38 0.45 0.50 0.48 0.49 0.54 0.55 0.58 0.63 0.62 0.61 0.60 0.51 0.40 0.32 0.24 0.18 0.10 0.06 0.04 0.05 0.05 0.06 0.07 0.07 0.06 0.04 0.02 0.02
0.09 0.13 0.14 0.13 0.13 0.11 0.07 0.07 0.08 0.07 0.08 0.12 0.19 0.26 0.29 0.34 0.40 0.48 0.49 0.52 0.59 0.67 0.78 0.80 0.77 0.81 0.69 0.55 0.43 0.29 0.22 0.15 0.10 0.06 0.04 0.04 0.04 0.03 0.03 0.03 0.03 0.02 0.01
0.11 0.15 0.17 0.17 0.16 0.11 0.09 0.06 0.06 0.07 0.08 0.09 0.12 0.19 0.22 0.24 0.27 0.31 0.38 0.45 0.50 0.56 0.68 0.80 0.88 0.90 0.83 0.68 0.50 0.35 0.23 0.14 0.13 0.13 0.08 0.06 0.04 0.02 0.01 0.01 0.02 0.01 0.01
0.13 0.18 0.21 0.21 0.20 0.20 0.14 0.09 0.06 0.08 0.09 0.10 0.11 0.13 0.13 0.14 0.20 0.23 0.25 0.30 0.35 0.38 0.44 0.55 0.66 0.71 0.75 0.69 0.53 0.37 0.25 0.17 0.11 0.11 0.10 0.08 0.03 0.02 0.01 0.00 0.00 0.00 0.00
0.17 0.20 0.22 0.24 0.25 0.25 0.18 0.12 0.09 0.09 0.12 0.12 0.13 0.12 0.12 0.13 0.14 0.16 0.21 0.22 0.22 0.24 0.26 0.30 0.38 0.48 0.52 0.50 0.41 0.35 0.27 0.22 0.18 0.12 0.07 0.09 0.06 0.04 0.02 0.01 0.00 0.00 0.00
0.23 0.27 0.29 0.30 0.31 0.30 0.23 0.15 0.11 0.12 0.14 0.14 0.15 0.15 0.15 0.14 0.10 0.10 0.15 0.17 0.17 0.17 0.17 0.21 0.25 0.32 0.38 0.36 0.30 0.25 0.23 0.19 0.19 0.15 0.06 0.05 0.06 0.07 0.08 0.04 0.01 0.00 0.00
0.30 0.33 0.36 0.39 0.40 0.39 0.30 0.19 0.14 0.14 0.16 0.17 0.20 0.20 0.18 0.14 0.11 0.09 0.11 0.13 0.13 0.13 0.12 0.13 0.17 0.21 0.21 0.23 0.23 0.18 0.14 0.14 0.13 0.13 0.07 0.03 0.03 0.05 0.10 0.05 0.02 0.01 0.00

GEFSMA_prec_meanprecacc_036.txt.gz
Total_Precipitation_Accumulation
1.18 1.24 1.00 0.93 0.85 0.96 1.17 1.05 0.81 0.82 0.89 0.91 0.82 0.75 0.68 0.51 0.48 0.50 0.47 0.62 0.69 0.60 0.60 0.58 0.54 0.55 0.56 0.55 0.55 0.55 0.59 0.60 0.54 0.44 0.36 0.26 0.20 0.21 0.15 0.09 0.06 0.04 0.04
1.41 1.27 1.21 1.18 1.09 1.22 1.24 1.21 1.11 1.10 1.06 1.09 0.89 0.76 0.70 0.61 0.57 0.61 0.56 0.66 0.71 0.59 0.54 0.60 0.57 0.53 0.56 0.56 0.57 0.59 0.58 0.59 0.51 0.42 0.37 0.31 0.24 0.24 0.23 0.19 0.18 0.12 0.08
1.44 1.46 1.36 1.22 1.26 1.34 1.36 1.39 1.35 1.29 1.09 1.04 0.90 0.85 0.76 0.70 0.70 0.65 0.53 0.49 0.49 0.56 0.55 0.53 0.54 0.50 0.51 0.54 0.60 0.63 0.55 0.50 0.44 0.35 0.30 0.29 0.27 0.23 0.22 0.23 0.25 0.22 0.16
1.24 1.29 1.19 1.17 1.26 1.16 1.12 1.11 1.05 1.01 0.97 1.00 0.89 0.73 0.66 0.68 0.68 0.65 0.51 0.39 0.37 0.30 0.39 0.50 0.55 0.46 0.50 0.58 0.64 0.65 0.50 0.36 0.29 0.28 0.26 0.23 0.23 0.19 0.15 0.14 0.16 0.22 0.19
0.77 0.80 0.77 0.80 0.88 0.87 0.84 0.77 0.84 0.84 0.82 0.88 0.91 0.70 0.59 0.61 0.61 0.58 0.51 0.37 0.38 0.34 0.26 0.34 0.39 0.35 0.47 0.58 0.63 0.62 0.53 0.41 0.30 0.28 0.29 0.28 0.26 0.18 0.12 0.09 0.10 0.12 0.14
0.60 0.57 0.55 0.55 0.54 0.57 0.61 0.60 0.58 0.61 0.57 0.57 0.57 0.51 0.53 0.46 0.50 0.50 0.41 0.31 0.29 0.24 0.20 0.26 0.37 0.26 0.31 0.41 0.47 0.50 0.51 0.51 0.39 0.33 0.29 0.34 0.41 0.31 0.15 0.10 0.08 0.09 0.10
0.43 0.44 0.41 0.39 0.36 0.35 0.35 0.37 0.41 0.42 0.39 0.44 0.44 0.37 0.35 0.30 0.30 0.29 0.27 0.26 0.20 0.17 0.17 0.21 0.24 0.24 0.22 0.24 0.31 0.37 0.48 0.57 0.52 0.44 0.39 0.36 0.43 0.43 0.26 0.15 0.10 0.10 0.12
0.30 0.30 0.30 0.31 0.29 0.26 0.26 0.27 0.28 0.27 0.26 0.29 0.31 0.30 0.25 0.21 0.16 0.12 0.14 0.12 0.11 0.16 0.15 0.15 0.17 0.24 0.27 0.32 0.34 0.30 0.41 0.53 0.62 0.61 0.58 0.50 0.44 0.39 0.32 0.27 0.18 0.13 0.12
0.22 0.23 0.23 0.23 0.26 0.26 0.26 0.26 0.24 0.23 0.20 0.18 0.22 0.25 0.19 0.13 0.12 0.09 0.08 0.08 0.09 0.12 0.11 0.13 0.14 0.13 0.17 0.29 0.46 0.50 0.44 0.45 0.65 0.77 0.74 0.60 0.45 0.38 0.39 0.39 0.36 0.29 0.20
0.18 0.17 0.17 0.16 0.17 0.21 0.26 0.23 0.25 0.24 0.23 0.17 0.17 0.19 0.18 0.19 0.18 0.14 0.10 0.06 0.11 0.13 0.10 0.12 0.13 0.16 0.25 0.37 0.51 0.60 0.47 0.43 0.54 0.66 0.69 0.62 0.52 0.43 0.42 0.47 0.58 0.58 0.44
0.18 0.18 0.18 0.16 0.15 0.15 0.19 0.20 0.25 0.26 0.27 0.23 0.20 0.20 0.21 0.21 0.21 0.18 0.11 0.09 0.11 0.08 0.08 0.11 0.18 0.20 0.25 0.41 0.65 0.62 0.48 0.40 0.44 0.53 0.55 0.55 0.56 0.51 0.43 0.42 0.59 0.70 0.63
0.18 0.17 0.18 0.18 0.19 0.17 0.15 0.14 0.18 0.23 0.28 0.29 0.24 0.21 0.25 0.23 0.19 0.21 0.15 0.12 0.13 0.08 0.09 0.10 0.17 0.24 0.32 0.42 0.47 0.51 0.51 0.45 0.44 0.49 0.53 0.54 0.54 0.50 0.49 0.52 0.66 0.78 0.82
0.16 0.16 0.16 0.17 0.18 0.19 0.19 0.17 0.15 0.18 0.23 0.27 0.25 0.24 0.25 0.22 0.23 0.24 0.18 0.15 0.20 0.21 0.26 0.24 0.25 0.36 0.40 0.53 0.50 0.48 0.47 0.42 0.34 0.30 0.31 0.37 0.44 0.49 0.54 0.58 0.66 0.72 0.80
0.22 0.21 0.16 0.15 0.16 0.17 0.18 0.18 0.16 0.16 0.20 0.24 0.25 0.32 0.31 0.21 0.24 0.22 0.20 0.25 0.29 0.33 0.37 0.35 0.40 0.57 0.73 0.69 0.67 0.54 0.36 0.30 0.23 0.21 0.19 0.20 0.26 0.33 0.39 0.46 0.53 0.57 0.65
0.23 0.21 0.18 0.14 0.14 0.15 0.17 0.17 0.17 0.19 0.22 0.25 0.30 0.38 0.39 0.35 0.32 0.30 0.30 0.34 0.39 0.36 0.40 0.49 0.54 0.62 0.71 0.65 0.60 0.48 0.33 0.26 0.20 0.16 0.16 0.16 0.16 0.20 0.26 0.29 0.33 0.37 0.43
0.18 0.17 0.16 0.13 0.12 0.13 0.15 0.15 0.17 0.21 0.25 0.31 0.38 0.44 0.49 0.49 0.47 0.43 0.39 0.42 0.50 0.48 0.51 0.54 0.57 0.57 0.55 0.40 0.37 0.32 0.24 0.20 0.15 0.12 0.12 0.13 0.13 0.14 0.17 0.20 0.23 0.27 0.30
0.17 0.15 0.14 0.14 0.12 0.12 0.13 0.16 0.18 0.20 0.24 0.30 0.36 0.42 0.46 0.53 0.59 0.58 0.59 0.58 0.56 0.61 0.59 0.52 0.58 0.61 0.51 0.34 0.24 0.20 0.17 0.13 0.09 0.10 0.11 0.11 0.11 0.12 0.12 0.14 0.18 0.21 0.23
0.15 0.14 0.14 0.13 0.10 0.10 0.13 0.17 0.20 0.21 0.23 0.26 0.33 0.43 0.47 0.49 0.54 0.61 0.70 0.69 0.68 0.74 0.72 0.58 0.59 0.60 0.51 0.39 0.26 0.20 0.12 0.09 0.07 0.09 0.10 0.12 0.12 0.11 0.10 0.09 0.10 0.11 0.12
0.14 0.14 0.14 0.12 0.10 0.09 0.10 0.12 0.17 0.21 0.25 0.27 0.31 0.39 0.47 0.55 0.58 0.61 0.69 0.71 0.74 0.85 0.85 0.74 0.67 0.67 0.61 0.41 0.28 0.19 0.11 0.08 0.05 0.07 0.08 0.10 0.10 0.09 0.08 0.08 0.07 0.05 0.05
0.12 0.14 0.15 0.14 0.14 0.12 0.09 0.09 0.10 0.14 0.18 0.24 0.32 0.35 0.40 0.51 0.60 0.64 0.71 0.81 0.86 0.90 0.93 0.88 0.85 0.83 0.73 0.55 0.39 0.26 0.18 0.11 0.06 0.04 0.05 0.06 0.07 0.08 0.08 0.06 0.05 0.04 0.03
0.11 0.15 0.17 0.17 0.17 0.15 0.09 0.09 0.12 0.11 0.13 0.16 0.22 0.29 0.31 0.36 0.46 0.58 0.67 0.76 0.89 1.00 1.11 1.11 1.07 1.10 0.94 0.72 0.52 0.32 0.23 0.15 0.10 0.06 0.05 0.04 0.04 0.04 0.04 0.04 0.04 0.03 0.02
0.15 0.20 0.21 0.22 0.21 0.14 0.10 0.09 0.09 0.11 0.13 0.15 0.18 0.24 0.25 0.26 0.29 0.36 0.47 0.61 0.75 0.87 1.04 1.15 1.20 1.23 1.17 0.93 0.68 0.44 0.26 0.14 0.14 0.14 0.09 0.08 0.05 0.03 0.02 0.02 0.02 0.02 0.02
0.19 0.24 0.26 0.27 0.27 0.27 0.19 0.13 0.09 0.11 0.14 0.17 0.19 0.21 0.17 0.16 0.22 0.25 0.30 0.38 0.49 0.61 0.73 0.89 1.01 1.03 1.10 1.05 0.78 0.51 0.31 0.18 0.12 0.11 0.10 0.09 0.05 0.03 0.01 0.01 0.01 0.01 0.01
0.24 0.27 0.28 0.31 0.34 0.32 0.24 0.16 0.13 0.13 0.17 0.19 0.20 0.21 0.20 0.18 0.19 0.22 0.26 0.27 0.29 0.35 0.43 0.52 0.64 0.80 0.88 0.90 0.75 0.57 0.40 0.26 0.19 0.12 0.07 0.09 0.07 0.04 0.03 0.02 0.01 0.01 0.00
0.30 0.34 0.37 0.39 0.41 0.40 0.30 0.19 0.14 0.17 0.23 0.22 0.22 0.23 0.24 0.21 0.17 0.14 0.21 0.23 0.24 0.25 0.28 0.35 0.45 0.61 0.72 0.74 0.71 0.54 0.38 0.24 0.20 0.15 0.06 0.05 0.07 0.08 0.09 0.05 0.01 0.00 0.00
0.38 0.41 0.44 0.48 0.52 0.51 0.41 0.24 0.18 0.21 0.27 0.28 0.31 0.31 0.26 0.23 0.20 0.12 0.15 0.18 0.18 0.20 0.22 0.23 0.29 0.39 0.45 0.53 0.56 0.45 0.29 0.20 0.14 0.13 0.07 0.03 0.04 0.06 0.11 0.06 0.02 0.01 0.00

GEFSMA_prec_meanprecacc_042.txt.gz
Total_Precipitation_Accumulation
1.34 1.43 1.16 1.08 1.05 1.24 1.49 1.41 1.19 1.18 1.21 1.20 1.08 0.96 0.83 0.61 0.54 0.55 0.52 0.68 0.77 0.73 0.74 0.70 0.62 0.61 0.60 0.58 0.56 0.57 0.62 0.64 0.56 0.45 0.38 0.27 0.21 0.22 0.16 0.09 0.06 0.04 0.04
1.48 1.35 1.32 1.29 1.21 1.38 1.43 1.47 1.47 1.55 1.53 1.53 1.28 1.11 0.97 0.81 0.73 0.73 0.66 0.76 0.82 0.73 0.68 0.72 0.67 0.60 0.62 0.60 0.59 0.61 0.60 0.62 0.55 0.45 0.39 0.33 0.26 0.25 0.24 0.20 0.18 0.12 0.08
1.49 1.50 1.40 1.28 1.32 1.41 1.46 1.51 1.53 1.57 1.45 1.45 1.32 1.24 1.13 1.02 0.96 0.86 0.74 0.65 0.60 0.67 0.67 0.64 0.63 0.59 0.59 0.59 0.64 0.66 0.57 0.52 0.47 0.36 0.31 0.31 0.28 0.24 0.23 0.24 0.26 0.22 0.16
1.26 1.31 1.21 1.20 1.29 1.20 1.18 1.20 1.17 1.19 1.21 1.30 1.22 1.08 1.02 1.01 0.97 0.90 0.74 0.60 0.52 0.41 0.51 0.63 0.66 0.55 0.59 0.64 0.69 0.70 0.54 0.38 0.31 0.29 0.27 0.25 0.25 0.21 0.16 0.15 0.18 0.23 0.19
0.78 0.81 0.79 0.82 0.90 0.90 0.89 0.86 0.99 1.05 1.08 1.18 1.20 1.00 0.91 0.94 0.90 0.85 0.75 0.58 0.57 0.48 0.39 0.47 0.53 0.46 0.57 0.65 0.71 0.71 0.61 0.45 0.32 0.29 0.30 0.29 0.27 0.20 0.13 0.11 0.11 0.14 0.14
0.61 0.57 0.56 0.57 0.57 0.60 0.66 0.69 0.71 0.80 0.81 0.84 0.86 0.78 0.79 0.70 0.71 0.69 0.58 0.50 0.45 0.39 0.34 0.41 0.49 0.37 0.44 0.52 0.57 0.60 0.62 0.60 0.45 0.35 0.30 0.35 0.42 0.32 0.16 0.11 0.10 0.11 0.11
0.43 0.45 0.41 0.40 0.39 0.39 0.40 0.43 0.50 0.56 0.57 0.64 0.67 0.60 0.54 0.49 0.48 0.44 0.40 0.39 0.31 0.27 0.30 0.34 0.36 0.35 0.30 0.31 0.37 0.43 0.56 0.66 0.61 0.49 0.42 0.39 0.45 0.44 0.26 0.16 0.11 0.12 0.14
0.30 0.30 0.30 0.31 0.31 0.28 0.29 0.31 0.34 0.35 0.38 0.48 0.52 0.51 0.43 0.37 0.31 0.23 0.24 0.19 0.17 0.23 0.25 0.25 0.26 0.36 0.38 0.39 0.37 0.33 0.47 0.61 0.72 0.70 0.64 0.53 0.47 0.41 0.33 0.27 0.19 0.15 0.14
0.22 0.23 0.23 0.24 0.27 0.28 0.28 0.31 0.30 0.29 0.28 0.31 0.39 0.48 0.41 0.28 0.24 0.21 0.18 0.15 0.14 0.18 0.20 0.25 0.24 0.23 0.26 0.36 0.51 0.53 0.47 0.51 0.73 0.86 0.82 0.65 0.48 0.40 0.40 0.41 0.37 0.30 0.21
0.18 0.17 0.17 0.16 0.18 0.23 0.28 0.28 0.32 0.31 0.29 0.23 0.27 0.35 0.37 0.34 0.32 0.26 0.23 0.18 0.23 0.23 0.20 0.22 0.23 0.26 0.34 0.43 0.55 0.63 0.49 0.45 0.58 0.74 0.78 0.70 0.56 0.45 0.43 0.49 0.61 0.60 0.46
0.18 0.18 0.18 0.16 0.15 0.15 0.20 0.22 0.29 0.33 0.33 0.28 0.26 0.29 0.32 0.32 0.32 0.30 0.22 0.20 0.24 0.19 0.18 0.21 0.28 0.29 0.33 0.48 0.68 0.64 0.50 0.41 0.46 0.56 0.61 0.61 0.61 0.54 0.45 0.44 0.64 0.77 0.66
0.18 0.17 0.18 0.18 0.19 0.17 0.15 0.15 0.19 0.26 0.32 0.34 0.29 0.28 0.34 0.34 0.33 0.34 0.23 0.17 0.20 0.15 0.15 0.16 0.24 0.31 0.38 0.48 0.50 0.53 0.53 0.47 0.46 0.50 0.55 0.57 0.56 0.53 0.51 0.55 0.71 0.86 0.90
0.16 0.16 0.16 0.17 0.19 0.19 0.19 0.17 0.15 0.19 0.25 0.30 0.29 0.30 0.32 0.31 0.36 0.37 0.28 0.22 0.26 0.26 0.33 0.28 0.28 0.40 0.44 0.57 0.52 0.50 0.48 0.44 0.35 0.31 0.32 0.38 0.45 0.50 0.56 0.60 0.69 0.78 0.89
0.22 0.21 0.16 0.15 0.16 0.18 0.18 0.18 0.16 0.17 0.20 0.25 0.27 0.37 0.36 0.28 0.35 0.36 0.35 0.39 0.39 0.41 0.46 0.41 0.43 0.59 0.75 0.72 0.68 0.55 0.38 0.32 0.25 0.22 0.20 0.21 0.26 0.34 0.40 0.47 0.54 0.60 0.68
0.23 0.21 0.18 0.15 0.14 0.15 0.17 0.18 0.18 0.19 0.22 0.25 0.31 0.40 0.41 0.38 0.39 0.40 0.44 0.53 0.58 0.49 0.49 0.56 0.60 0.66 0.74 0.67 0.61 0.49 0.33 0.27 0.21 0.17 0.16 0.16 0.16 0.20 0.27 0.30 0.34 0.38 0.43
0.18 0.17 0.16 0.13 0.12 0.13 0.15 0.16 0.18 0.22 0.25 0.31 0.38 0.44 0.50 0.50 0.51 0.50 0.51 0.58 0.70 0.67 0.62 0.62 0.64 0.64 0.61 0.43 0.38 0.33 0.25 0.21 0.15 0.13 0.12 0.13 0.13 0.15 0.18 0.20 0.23 0.27 0.31
0.17 0.15 0.14 0.14 0.12 0.12 0.13 0.16 0.18 0.20 0.24 0.30 0.37 0.42 0.46 0.54 0.61 0.62 0.67 0.68 0.70 0.80 0.74 0.63 0.72 0.78 0.64 0.42 0.28 0.23 0.18 0.13 0.10 0.11 0.11 0.11 0.11 0.12 0.13 0.14 0.18 0.21 0.23
0.15 0.15 0.14 0.13 0.10 0.10 0.13 0.18 0.20 0.21 0.23 0.27 0.34 0.44 0.48 0.49 0.55 0.63 0.75 0.78 0.79 0.90 0.88 0.73 0.79 0.85 0.72 0.56 0.37 0.25 0.14 0.09 0.08 0.09 0.11 0.12 0.12 0.11 0.10 0.09 0.10 0.11 0.13
0.14 0.14 0.14 0.12 0.10 0.09 0.10 0.13 0.17 0.21 0.25 0.27 0.31 0.39 0.47 0.55 0.58 0.62 0.72 0.77 0.83 0.98 1.01 0.91 0.89 0.96 0.95 0.71 0.46 0.26 0.14 0.08 0.06 0.07 0.09 0.10 0.11 0.10 0.09 0.08 0.07 0.05 0.05
0.12 0.14 0.15 0.15 0.14 0.12 0.09 0.09 0.10 0.14 0.19 0.24 0.33 0.36 0.41 0.52 0.60 0.64 0.72 0.84 0.93 1.01 1.08 1.05 1.07 1.14 1.09 0.92 0.64 0.36 0.22 0.12 0.07 0.05 0.06 0.07 0.08 0.08 0.08 0.07 0.06 0.04 0.03
0.11 0.15 0.17 0.17 0.17 0.15 0.09 0.09 0.12 0.11 0.14 0.17 0.23 0.30 0.32 0.37 0.47 0.58 0.67 0.77 0.93 1.08 1.23 1.28 1.27 1.40 1.30 1.05 0.77 0.46 0.29 0.18 0.11 0.07 0.05 0.05 0.05 0.04 0.04 0.05 0.05 0.04 0.03
0.15 0.20 0.21 0.22 0.21 0.14 0.10 0.09 0.10 0.11 0.14 0.17 0.20 0.26 0.26 0.27 0.31 0.37 0.48 0.62 0.77 0.92 1.12 1.29 1.39 1.47 1.48 1.25 0.99 0.70 0.38 0.18 0.15 0.14 0.09 0.08 0.05 0.03 0.02 0.02 0.04 0.03 0.02
0.19 0.24 0.26 0.28 0.27 0.27 0.19 0.13 0.09 0.12 0.15 0.19 0.21 0.23 0.19 0.17 0.24 0.27 0.32 0.40 0.51 0.63 0.78 0.98 1.14 1.22 1.38 1.40 1.14 0.83 0.51 0.28 0.15 0.12 0.10 0.09 0.06 0.03 0.02 0.02 0.03 0.02 0.02
0.24 0.27 0.28 0.31 0.34 0.32 0.24 0.16 0.13 0.14 0.18 0.20 0.23 0.24 0.23 0.21 0.22 0.27 0.30 0.30 0.31 0.36 0.45 0.56 0.73 0.94 1.11 1.24 1.15 0.98 0.79 0.49 0.28 0.15 0.08 0.10 0.08 0.05 0.04 0.03 0.04 0.03 0.01
0.30 0.34 0.37 0.39 0.41 0.40 0.31 0.19 0.15 0.18 0.24 0.24 0.25 0.27 0.29 0.24 0.20 0.20 0.27 0.27 0.26 0.26 0.29 0.37 0.51 0.71 0.92 1.04 1.09 0.93 0.75 0.55 0.38 0.20 0.07 0.05 0.07 0.09 0.10 0.06 0.04 0.03 0.02
0.38 0.41 0.44 0.49 0.52 0.52 0.41 0.24 0.19 0.22 0.29 0.31 0.35 0.36 0.34 0.29 0.25 0.18 0.22 0.24 0.22 0.22 0.24 0.24 0.32 0.46 0.59 0.78 0.90 0.78 0.60 0.47 0.34 0.22 0.09 0.04 0.04 0.06 0.11 0.07 0.03 0.02 0.01